Epoch 2007 Aug. 8.0 TT = JDT 2454320.5 T 2007 July 20.55239 TT MPC q 4.4255241 (2000.0) P Q z -0.0003367 Peri. 296.44241 +0.63909369 +0.02515464 +/-0.0000010 Node 72.11484 +0.52777028 +0.71268846 e 1.0014899 Incl. 53.87697 -0.55947993 +0.70102953 From 395 observations 2006 May 17-2009 Feb. 28, mean residual 0".5.
m1 = 6.5 + 5 logΔ + 10.0 log r